Regional Weather Roundup
Issued by NWS Cleveland, OH

Home | Current Version | Previous Version | Graphics & Text | Print | Product List | Glossary On
Versions: 1 2 3 4 5 6 7 8 9 10 11 12 13 14 15 16 17 18 19 20 21 22 23 24 25 26 27 28 29 30 31 32 33 34 35 36 37 38 39 40 41 42 43 44 45 46 47 48 49 50
123
ASUS41 KCLE 051712
RWRCLE
OHIO REGIONAL WEATHER ROUNDUP
NATIONAL WEATHER SERVICE WILMINGTON, OH
100 PM EDT THU MAY 05 2016

NOTE: "FAIR" INDICATES FEW OR NO CLOUDS BELOW 12,000 FEET WITH NO
SIGNIFICANT WEATHER AND/OR OBSTRUCTIONS TO VISIBILITY.

OHZ001>008-015>018-024>027-034-035-043-044-051800-
   NORTHWEST OHIO

CITY           SKY/WX    TMP DP  RH WIND       PRES   REMARKS
DEFIANCE       FAIR      64  44  48 NE13G22   29.86S
FINDLAY        PTSUNNY   57  45  64 NE18      29.83S
TOLEDO EXPRESS PTSUNNY   63  42  46 N13       29.85S
TOLEDO EXEC    FAIR      61  44  53 N15G21    29.86S
LIMA           PTSUNNY   57  50  77 NE15      29.83S
$$

OHZ009>014-019>023-028>033-038-089-051800-
   NORTHEAST OHIO

CITY           SKY/WX    TMP DP  RH WIND       PRES   REMARKS
CLE-HOPKINS    CLOUDY    52  47  83 N21G26    29.83S
CLE-LAKEFRONT  CLOUDY    51  48  89 N16       29.81R FOG
CUY CO. ARPT   CLOUDY    54  50  87 N16       29.81R
LORAIN-ELYRIA  CLOUDY    49  45  86 NE13      29.83R FOG
ASHTABULA      PTSUNNY   53  47  79 NE9       29.79S
AKRON-CANTON   CLOUDY    58  47  66 VRB7G17   29.76F
WOOSTER        CLOUDY    57  50  77 N9        29.77F
MANSFIELD      CLOUDY    50  47  89 N12       29.80R
YOUNGSTOWN     CLOUDY    61  50  67 VRB6      29.74F
$$

OHZ042-051>053-060>062-070>072-077>081-051800-
  SOUTHWEST OHIO

CITY           SKY/WX    TMP DP  RH WIND       PRES   REMARKS
CINC-COVINGTON CLOUDY    50  39  66 NW13      29.86R
CINC-LUNKEN    CLOUDY    51  40  65 N10       29.87R
HAMILTON       CLOUDY    50  43  77 NW8       29.88R
DAYTON         CLOUDY    49  44  83 N10       29.85S HAZE
WRIGHT-PAT AFB CLOUDY    48  46  90 N8        29.84R
DAYTON GENERAL CLOUDY    48  41  76 NW9       29.85R
WILMINGTON     CLOUDY    47  41  80 NW12      29.83S
$$

OHZ036-037-039>041-045>050-054>059-063>069-073>076-082>088-051800-
  CENTRAL AND SOUTHEAST OHIO

CITY           SKY/WX    TMP DP  RH WIND       PRES   REMARKS
COLUMBUS       CLOUDY    50  46  86 NW7       29.80S
OSU AIRPORT    CLOUDY    51  47  86 N9        29.80S FOG
BOLTON FIELD   NOT AVBL
RICKENBACK AFB CLOUDY    49  44  83 NW6       29.80S
NEWARK         CLOUDY    57  47  69 VRB7      29.77F
MARION         CLOUDY    50  47  89 N16       29.82R FOG
LANCASTER      CLOUDY    53  46  77 NW8       29.79S
ZANESVILLE     CLOUDY    55  47  74 NW9       29.76S
NEW PHILLY     CLOUDY    57  46  66 NW13      29.75F
$$




USA.gov is the U.S. government's official web portal to all federal, state and local government web resources and services.